TimeCDT,TemperatureF,Dew PointF,Humidity,Sea Level PressureIn,VisibilityMPH,Wind Direction,Wind SpeedMPH,Gust SpeedMPH,PrecipitationIn,Events,Conditions,WindDirDegrees,DateUTC
12:54 AM,55.9,50.0,80,29.88,10.0,SE,3.5,-,N/A,,Clear,140,2011-10-12 05:54:00
1:54 AM,55.0,50.0,83,29.88,10.0,Calm,Calm,-,N/A,,Clear,0,2011-10-12 06:54:00
2:54 AM,53.1,48.9,86,29.87,10.0,ESE,3.5,-,N/A,,Clear,110,2011-10-12 07:54:00
3:54 AM,52.0,48.0,86,29.85,10.0,Calm,Calm,-,N/A,,Clear,0,2011-10-12 08:54:00
4:54 AM,51.1,48.9,92,29.85,10.0,SE,3.5,-,N/A,,Clear,130,2011-10-12 09:54:00
5:54 AM,52.0,48.9,89,29.85,10.0,ESE,5.8,-,N/A,,Clear,110,2011-10-12 10:54:00
6:54 AM,54.0,51.1,90,29.86,10.0,ESE,4.6,-,N/A,,Clear,120,2011-10-12 11:54:00
7:54 AM,55.9,53.1,90,29.85,5.0,Calm,Calm,-,N/A,,Mostly Cloudy,0,2011-10-12 12:54:00
8:54 AM,62.1,55.9,80,29.84,10.0,SE,6.9,-,N/A,,Overcast,130,2011-10-12 13:54:00
9:54 AM,66.0,57.0,73,29.83,10.0,ESE,4.6,-,N/A,,Clear,120,2011-10-12 14:54:00
10:54 AM,70.0,57.9,65,29.81,10.0,SSE,4.6,-,N/A,,Clear,150,2011-10-12 15:54:00
11:54 AM,73.9,57.0,55,29.79,10.0,South,3.5,-,N/A,,Clear,180,2011-10-12 16:54:00
12:54 PM,77.0,55.9,48,29.76,10.0,South,6.9,-,N/A,,Partly Cloudy,170,2011-10-12 17:54:00
2:09 PM,66.2,60.8,83,29.76,6.0,West,15.0,23.0,0.01,Rain,Light Rain,260,2011-10-12 19:09:00
2:13 PM,64.4,60.8,88,29.76,1.5,WSW,16.1,-,0.12,Rain,Heavy Rain,240,2011-10-12 19:13:00
2:31 PM,64.4,60.8,88,29.76,3.0,West,8.1,-,0.19,Rain,Light Rain,270,2011-10-12 19:31:00
2:54 PM,64.0,62.1,93,29.75,3.0,SW,8.1,-,0.22,Rain,Rain,230,2011-10-12 19:54:00
3:54 PM,66.9,61.0,81,29.72,10.0,South,5.8,-,0.01,,Partly Cloudy,180,2011-10-12 20:54:00
4:54 PM,66.9,60.1,79,29.70,10.0,South,8.1,-,N/A,,Mostly Cloudy,190,2011-10-12 21:54:00
5:54 PM,64.9,61.0,87,29.70,10.0,SSE,6.9,-,N/A,,Mostly Cloudy,160,2011-10-12 22:54:00
6:54 PM,64.0,61.0,90,29.70,10.0,SSE,6.9,-,N/A,,Overcast,160,2011-10-12 23:54:00
7:54 PM,63.0,61.0,93,29.70,10.0,SSE,5.8,-,N/A,,Overcast,160,2011-10-13 00:54:00
8:54 PM,63.0,60.1,90,29.69,10.0,SSE,6.9,-,N/A,,Mostly Cloudy,160,2011-10-13 01:54:00
9:54 PM,63.0,60.1,90,29.68,8.0,South,8.1,-,0.00,Rain,Light Rain,180,2011-10-13 02:54:00
10:54 PM,62.6,60.8,94,29.68,7.0,South,6.9,-,N/A,,Overcast,170,2011-10-13 03:54:00
11:40 PM,62.6,60.8,94,29.67,5.0,South,8.1,-,0.00,Rain,Light Rain,180,2011-10-13 04:40:00
11:54 PM,62.1,60.1,93,29.65,5.0,South,10.4,-,0.01,Rain,Light Rain,170,2011-10-13 04:54:00